This is the latest recevied weather packets stored in our database for station/object KG5WBN. If no packets are shown the sender has not sent any weather packets the latest 10 day(s).
| Time | Temp. | Humidity | Pressure | Rain* | Wind** | Luminosity | Snow |
|---|---|---|---|---|---|---|---|
| 1777910898 | 25.56° C | 24% | 1017.3 hPa | 0 mm | - | 266 W/m² | - |
| 1777910595 | 25.56° C | 22% | 1017.3 hPa | 0 mm | - | 318 W/m² | - |
| 1777910292 | 25.56° C | 24% | 1017.3 hPa | 0 mm | - | 313 W/m² | - |
| 1777909988 | 25.56° C | 24% | 1017.3 hPa | 0 mm | - | 310 W/m² | - |
| 1777909686 | 25.56° C | 24% | 1017.6 hPa | 0 mm | - | 306 W/m² | - |
| 1777909383 | 26.11° C | 23% | 1017.6 hPa | 0 mm | - | 256 W/m² | - |
| 1777909081 | 25° C | 24% | 1017.3 hPa | 0 mm | - | 296 W/m² | - |
| 1777908778 | 24.44° C | 25% | 1017.3 hPa | 0 mm | - | 294 W/m² | - |
| 1777908475 | 25.56° C | 24% | 1017.3 hPa | 0 mm | - | 292 W/m² | - |
| 1777908172 | 25.56° C | 23% | 1017.3 hPa | 0 mm | - | 288 W/m² | - |
| 1777907868 | 24.44° C | 24% | 1017.3 hPa | 0 mm | - | 281 W/m² | - |
| 1777907564 | 25° C | 24% | 1017.3 hPa | 0 mm | - | 280 W/m² | - |
| 1777907260 | 25.56° C | 25% | 1017.3 hPa | 0 mm | - | 272 W/m² | - |
| 1777906956 | 25° C | 28% | 1017.3 hPa | 0 mm | - | 266 W/m² | - |
| 1777906654 | 25.56° C | 26% | 1017.6 hPa | 0 mm | - | 259 W/m² | - |
| 1777906350 | 25.56° C | 27% | 1017.6 hPa | 0 mm | - | 249 W/m² | - |
| 1777906047 | 25° C | 29% | 1017.3 hPa | 0 mm | - | 243 W/m² | - |
| 1777905743 | 24.44° C | 29% | 1017.3 hPa | 0 mm | - | 234 W/m² | - |
| 1777905441 | 25° C | 31% | 1017.3 hPa | 0 mm | - | 225 W/m² | - |
| 1777905138 | 23.89° C | 32% | 1017.6 hPa | 0 mm | - | 217 W/m² | - |
| 1777904835 | 24.44° C | 31% | 1017.6 hPa | 0 mm | - | 205 W/m² | - |
| 1777904532 | 23.89° C | 32% | 1017.6 hPa | 0 mm | - | 196 W/m² | - |
| 1777904229 | 23.89° C | 34% | 1017.3 hPa | 0 mm | - | 172 W/m² | - |
| 1777903926 | 23.33° C | 34% | 1017.6 hPa | 0 mm | - | 178 W/m² | - |
| 1777903623 | 24.44° C | 33% | 1017.6 hPa | 0 mm | - | 153 W/m² | - |
* Rain latest hour (hover to see other rain measurements)
** Current wind speed in m/s (hover to see current wind gust speed)